Regional Weather Roundup
Issued by NWS

Home | Current Version | Previous Version | Graphics & Text | Print | Product List | Glossary On
Versions: 1 2 3 4 5 6 7 8 9 10 11 12 13 14 15 16 17 18 19 20 21 22 23 24 25 26 27 28 29 30 31 32 33 34 35 36 37 38 39 40 41 42 43 44 45 46 47 48 49 50
000
ASUS43 KMKX 291911
RWRWI

WISCONSIN REGIONAL WEATHER ROUNDUP
NATIONAL WEATHER SERVICE MILWAUKEE/SULLIVAN WI
200 PM CDT MON MAY 29 2017

NOTE: "FAIR" INDICATES FEW OR NO CLOUDS BELOW 12,000 FEET WITH NO
SIGNIFICANT WEATHER AND/OR OBSTRUCTIONS TO VISIBILITY.

WIZ001-002-006>008-014>016-023>028-292000-
NORTHWEST WISCONSIN

CITY           SKY/WX    TMP DP  RH WIND       PRES   REMARKS
SUPERIOR ARPT  NOT AVBL
ASHLAND        CLOUDY    62  49  62 W13       29.69S
HAYWARD        LGT RAIN  59  46  62 W10G18    29.72F
SIREN          CLOUDY    57  51  80 NW7       29.77R
CUMBERLAND     CLOUDY    59  50  72 W14G28    29.77S
RICE LAKE      CLOUDY    58  51  77 W16       29.78F
CHETEK         LGT RAIN  54  50  87 NW7G20    29.78R
LADYSMITH      CLOUDY    60  49  66 W14G20    29.76S
EAU CLAIRE     PTSUNNY   63  48  58 W18G25    29.77S
MENOMONIE      PTSUNNY   62  49  61 W13       29.79S
NEW RICHMOND   CLOUDY    61  49  62 W14G20    29.79F
OSCEOLA        CLOUDY    63  50  62 W20       29.82S
$$

WIZ003>005-009-010-017-018-292000-
NORTH CENTRAL WISCONSIN

CITY           SKY/WX    TMP DP  RH WIND       PRES   REMARKS
MANITOWISH WTR LGT RAIN  52  52 100 W9G16     29.70R
ARBOR VITAE    PTSUNNY   62  51  68 NW8       29.68S
WOODRUFF       PTSUNNY   62  51  68 NW8       29.68S
RHINELANDER    PTSUNNY   59  53  80 W15       29.70S
EAGLE RIVER    PTSUNNY   61  45  55 W17G24    29.67S
LAND O LAKES   RAIN      52  50  92 NW7       29.69R
PHILLIPS       PTSUNNY   59  52  75 W8        29.70S
TOMAHAWK       CLOUDY    57  50  77 W10       29.72S
MEDFORD        PTSUNNY   59  49  70 W17       29.74S
MERRILL        CLOUDY    58  52  78 W23       29.73S
$$

WIZ029-030-035-036-043>047-292000-
CENTRAL WISCONSIN

CITY           SKY/WX    TMP DP  RH WIND       PRES   REMARKS
WAUSAU         PTSUNNY   61  48  62 W22G30    29.73R
MOSINEE        PTSUNNY   57  50  77 W16G24    29.76R
MARSHFIELD     PTSUNNY   60  46  59 W18       29.75S
STEVENS POINT  CLOUDY    56  51  80 W15G23    29.77R
WAUPACA        PTSUNNY   62  51  65 W20G26    29.77R
WAUTOMA        MOSUNNY   65  45  48 MISG        N/A
WISC RAPIDS    PTSUNNY   62  51  67 W10       29.79R
CAMP DOUGLAS   PTSUNNY   62  46  55 W20G30    29.80R
$$

WIZ011>013-019>022-031-037>040-048>050-292000-
NORTHEAST WISCONSIN

CITY           SKY/WX    TMP DP  RH WIND       PRES   REMARKS
ANTIGO         LGT RAIN  53  49  89 W16G23    29.74R
SHAWANO        RAIN      55  50  82 W13       29.74R
OCONTO         PTSUNNY   66  49  54 W17G28    29.70S
STURGEON BAY   MOSUNNY   66  51  58 SW20G26   29.69
GREEN BAY      MOSUNNY   66  51  58 SW17G30   29.73R
MANITOWOC      PTSUNNY   67  49  52 W20G29    29.75R
APPLETON       PTSUNNY   64  45  48 W17G23    29.74R
CLINTONVILLE   LGT RAIN  57  46  67 W10G22    29.74R
OSHKOSH        PTSUNNY   64  46  52 W12G22    29.75F
$$

WIZ032>034-041-042-053>061-292000-
SOUTHWEST WISCONSIN

CITY           SKY/WX    TMP DP  RH WIND       PRES   REMARKS
LA CROSSE      PTSUNNY   66  48  52 W10       29.81S
SPARTA         CLOUDY    64  48  56 W9        29.82S
VIROQUA        CLOUDY    64  45  50 MISG      29.84F
BOSCOBEL       PTSUNNY   68  45  43 W13       29.84F
PRAIRIE DU CHI CLOUDY    68  41  37 W21       29.85R
PLATTEVILLE    PTSUNNY   68  46  46 W23       29.87S
$$

WIZ056-057-062-063-064-067-068-292000-
SOUTH CENTRAL WISCONSIN

CITY           SKY/WX    TMP DP  RH WIND       PRES   REMARKS
REEDSBURG      CLOUDY    62  45  53 W20G28    29.82R
BARABOO/DELLS  CLOUDY    63  44  50 W20G26    29.81R
LONE ROCK      MOSUNNY   69  45  41 W17G31    29.83S
MINERAL POINT  CLOUDY    68  43  40 W18G30    29.85R
MADISON        PTSUNNY   66  47  50 W10G22    29.81R
MIDDLETON      CLOUDY    68  49  50 W15G21    29.83R
WATERTOWN      CLOUDY    66  46  49 W16G25    29.81R
MONROE         PTSUNNY   66  43  42 W23G31    29.85R
JANESVILLE     MOSUNNY   72  45  37 W18G29    29.82S
$$

WIZ051-052-058>065-066-070>072-292000-
SOUTHEAST WISCONSIN

CITY           SKY/WX    TMP DP  RH WIND       PRES   REMARKS
MILWAUKEE      MOSUNNY   72  46  39 W18G24    29.79S
WAUKESHA       PTSUNNY   66  46  48 W14G29    29.81R
MILWAUKEE/TIMM PTSUNNY   70  43  37 W18G29    29.79S
RACINE         MOSUNNY   73  46  38 W17G26    29.81R
KENOSHA        SUNNY     71  48  43 W21G32    29.81R
FOND DU LAC    CLOUDY    65  43  44 W12G26    29.77S
SHEBOYGAN      CLOUDY    65  50  58 W18G24    29.77R
WEST BEND      PTSUNNY   64  43  45 W21G28    29.79R
JUNEAU         CLOUDY    66  47  50 W18G26    29.81S
$$

LSZ147-162-292000-
LAKE SUPERIOR

STATION/POSITION TIME  TEMP    WIND        PRES    WAVE
                       AIR SEA DIR/SP/G            HT/PER
                 (UTC) (F)     (DEG/KT/KT) (MB)    (FT/S)
W MID LAKE BUOY  1850   44 37  250/ 17/ 21 1003.1R   3/ 4
DEVILS ISLAND    1900   49     240/ 21/ 23 1004.6R
PORT WING        1830   55     250/ 12/ 20 1006.1R
SAXON HARBOR     1840   57     280/  7/ 13 1005.4R
$$

LMZ867-665-643>646-292000-
LAKE MICHIGAN

STATION/POSITION TIME  TEMP    WIND        PRES    WAVE
                       AIR SEA DIR/SP/G            HT/PER
                 (UTC) (F)     (DEG/KT/KT) (MB)    (FT/S)
CHAMBERS ISLAND  1840   64     180/  8/ 18 1004.1S
N MID LAKE BUOY  1850   47 41  180/ 16/ 17 1005.3S   2/ 4
NORTHPORT PIER   1840   66     270/  5/ 18 1004.4R
KEWAUNEE LAKESHO 1842   65     250/ 15/ 25 1006.1R
SHEBOYGAN LAKESH 1900   65     260/ 20/ 24 1007.6R
PORT WASHINGTON  1900   70     260/ 12/ 26 1009.1
ATWATER BUOY     1809   64     260/ 16/ 21 1008.7R
MILWAUKEE LAKESH 1850   68     260/ 13/ 18   N/A
S MID LAKE BUOY  1850   52 48  230/  8/  8 1009.7R   1
KENOSHA   LAKESH 1900   71     270/ 17/ 25 1009.1
$$

TC  - TEMPERATURE IN CELSIUS
VSB - VISIBILITY IN STATUTE MILES
WCI - WIND CHILL INDEX
HX  - HEAT INDEX




USA.gov is the U.S. government's official web portal to all federal, state and local government web resources and services.